Back to catalog

SL-8 R/B

AliveLEO
NORAD 13386·ROCKET BODY·🇷🇺 Russia

Launched Jul 21, 1982 from Plesetsk Cosmodrome

Loading…

Next Passes (next 24 hours)

TLE

FreshSource: Space-Track

Epoch: Sep 14, 2026, 08:20 UTC

1 13386U 82073J   26257.34751937  .00000055  00000-0  63295-3 0  9990
2 13386  74.0006 238.9922 0154169  33.3432 118.7243 12.21170768968351

Track SL-8 R/B in real time with AllMySat

Download on the App Store